owner,sensor,date,latitude,longitude,vertical_datum,wind_speed,wind_to_direction,wind_speed_of_gust,qcFlag 
WAVCIS,ioos:station:WAVCIS:CSI06:1,2010-03-01T00:00:00Z,28.8667,-90.4833,10.0,3.287,148.0,,'11111222,11111222,99999999' 
WAVCIS,ioos:station:WAVCIS:CSI06:1,2010-03-01T01:00:00Z,28.8667,-90.4833,10.0,4.452,141.0,,'11111222,11111222,99999999' 
WAVCIS,ioos:station:WAVCIS:CSI06:1,2010-03-01T02:00:00Z,28.8667,-90.4833,10.0,5.256,140.0,,'11111222,11111222,99999999' 
WAVCIS,ioos:station:WAVCIS:CSI06:1,2010-03-01T03:00:00Z,28.8667,-90.4833,10.0,5.098,123.0,,'11111222,11111222,99999999' 
WAVCIS,ioos:station:WAVCIS:CSI06:1,2010-03-01T04:00:00Z,28.8667,-90.4833,10.0,5.642,97.0,,'11111222,11111222,99999999' 
WAVCIS,ioos:station:WAVCIS:CSI06:1,2010-03-01T05:00:00Z,28.8667,-90.4833,10.0,7.26,88.0,,'11111222,11111222,99999999' 
WAVCIS,ioos:station:WAVCIS:CSI06:1,2010-03-01T06:00:00Z,28.8667,-90.4833,10.0,6.058,91.0,,'11111222,11111222,99999999' 
WAVCIS,ioos:station:WAVCIS:CSI06:1,2010-03-01T07:00:00Z,28.8667,-90.4833,10.0,5.196,93.0,,'11111222,11111222,99999999' 
WAVCIS,ioos:station:WAVCIS:CSI06:1,2010-03-01T08:00:00Z,28.8667,-90.4833,10.0,4.113,117.0,,'11111222,11111222,99999999' 
WAVCIS,ioos:station:WAVCIS:CSI06:1,2010-03-01T09:00:00Z,28.8667,-90.4833,10.0,5.21,110.0,,'11111222,11111222,99999999' 
WAVCIS,ioos:station:WAVCIS:CSI06:1,2010-03-01T10:00:00Z,28.8667,-90.4833,10.0,7.12,72.0,,'11111222,11111222,99999999' 
WAVCIS,ioos:station:WAVCIS:CSI06:1,2010-03-01T11:00:00Z,28.8667,-90.4833,10.0,5.625,74.0,,'11111222,11111222,99999999' 
WAVCIS,ioos:station:WAVCIS:CSI06:1,2010-03-01T12:00:00Z,28.8667,-90.4833,10.0,6.151,47.0,,'11111222,11111222,99999999' 
WAVCIS,ioos:station:WAVCIS:CSI06:1,2010-03-01T13:00:00Z,28.8667,-90.4833,10.0,7.11,54.0,,'11111222,11111222,99999999' 
WAVCIS,ioos:station:WAVCIS:CSI06:1,2010-03-01T14:00:00Z,28.8667,-90.4833,10.0,6.592,59.0,,'11111222,11111222,99999999' 
WAVCIS,ioos:station:WAVCIS:CSI06:1,2010-03-01T15:00:00Z,28.8667,-90.4833,10.0,10.42,73.0,,'11111222,11111222,99999999' 
WAVCIS,ioos:station:WAVCIS:CSI06:1,2010-03-01T16:00:00Z,28.8667,-90.4833,10.0,12.6,78.0,,'11111222,11111222,99999999' 
WAVCIS,ioos:station:WAVCIS:CSI06:1,2010-03-01T17:00:00Z,28.8667,-90.4833,10.0,12.19,87.0,,'11111222,11111222,99999999' 
WAVCIS,ioos:station:WAVCIS:CSI06:1,2010-03-01T18:00:00Z,28.8667,-90.4833,10.0,12.4,107.0,,'11111222,11111222,99999999' 
WAVCIS,ioos:station:WAVCIS:CSI06:1,2010-03-01T19:00:00Z,28.8667,-90.4833,10.0,13.78,119.0,,'11111222,11111222,99999999' 
WAVCIS,ioos:station:WAVCIS:CSI06:1,2010-03-01T20:00:00Z,28.8667,-90.4833,10.0,13.49,124.0,,'11111222,11111222,99999999' 
WAVCIS,ioos:station:WAVCIS:CSI06:1,2010-03-01T21:00:00Z,28.8667,-90.4833,10.0,13.19,138.0,,'11111222,11111222,99999999' 
WAVCIS,ioos:station:WAVCIS:CSI06:1,2010-03-01T22:00:00Z,28.8667,-90.4833,10.0,11.52,165.0,,'11111222,11111222,99999999' 
WAVCIS,ioos:station:WAVCIS:CSI06:1,2010-03-01T23:00:00Z,28.8667,-90.4833,10.0,13.38,172.0,,'11111222,11111222,99999999' 
WAVCIS,ioos:station:WAVCIS:CSI06:1,2010-03-02T00:00:00Z,28.8667,-90.4833,10.0,11.26,181.0,,'11111222,11111222,99999999' 
WAVCIS,ioos:station:WAVCIS:CSI06:1,2010-03-02T01:00:00Z,28.8667,-90.4833,10.0,14.88,19.0,,'11111222,11111222,99999999' 
WAVCIS,ioos:station:WAVCIS:CSI06:1,2010-03-02T02:00:00Z,28.8667,-90.4833,10.0,11.92,37.0,,'11111222,11111222,99999999' 
WAVCIS,ioos:station:WAVCIS:CSI06:1,2010-03-02T03:00:00Z,28.8667,-90.4833,10.0,6.439,27.0,,'11111222,11111222,99999999' 
WAVCIS,ioos:station:WAVCIS:CSI06:1,2010-03-02T04:00:00Z,28.8667,-90.4833,10.0,7.5,35.0,,'11111222,11111222,99999999' 
WAVCIS,ioos:station:WAVCIS:CSI06:1,2010-03-02T05:00:00Z,28.8667,-90.4833,10.0,4.782,10.0,,'11111222,11111222,99999999' 
WAVCIS,ioos:station:WAVCIS:CSI06:1,2010-03-02T06:00:00Z,28.8667,-90.4833,10.0,7.41,334.0,,'11111222,11111222,99999999' 
WAVCIS,ioos:station:WAVCIS:CSI06:1,2010-03-02T07:00:00Z,28.8667,-90.4833,10.0,6.602,320.0,,'11111222,11111222,99999999' 
WAVCIS,ioos:station:WAVCIS:CSI06:1,2010-03-02T08:00:00Z,28.8667,-90.4833,10.0,9.28,304.0,,'11111222,11111222,99999999' 
WAVCIS,ioos:station:WAVCIS:CSI06:1,2010-03-02T09:00:00Z,28.8667,-90.4833,10.0,11.4,311.0,,'11111222,11111222,99999999' 
WAVCIS,ioos:station:WAVCIS:CSI06:1,2010-03-02T10:00:00Z,28.8667,-90.4833,10.0,12.24,321.0,,'11111222,11111222,99999999' 
WAVCIS,ioos:station:WAVCIS:CSI06:1,2010-03-02T11:00:00Z,28.8667,-90.4833,10.0,12.28,332.0,,'11111222,11111222,99999999' 
WAVCIS,ioos:station:WAVCIS:CSI06:1,2010-03-02T12:00:00Z,28.8667,-90.4833,10.0,15.11,334.0,,'11111222,11111222,99999999' 
WAVCIS,ioos:station:WAVCIS:CSI06:1,2010-03-02T13:00:00Z,28.8667,-90.4833,10.0,13.12,334.0,,'11111222,11111222,99999999' 
WAVCIS,ioos:station:WAVCIS:CSI06:1,2010-03-02T14:00:00Z,28.8667,-90.4833,10.0,11.73,340.0,,'11111222,11111222,99999999' 
WAVCIS,ioos:station:WAVCIS:CSI06:1,2010-03-02T15:00:00Z,28.8667,-90.4833,10.0,13.89,333.0,,'11111222,11111222,99999999' 
WAVCIS,ioos:station:WAVCIS:CSI06:1,2010-03-02T16:00:00Z,28.8667,-90.4833,10.0,13.72,326.0,,'11111222,11111222,99999999' 
WAVCIS,ioos:station:WAVCIS:CSI06:1,2010-03-02T17:00:00Z,28.8667,-90.4833,10.0,14.37,330.0,,'11111222,11111222,99999999' 
WAVCIS,ioos:station:WAVCIS:CSI06:1,2010-03-02T18:00:00Z,28.8667,-90.4833,10.0,14.57,322.0,,'11111222,11111222,99999999' 
WAVCIS,ioos:station:WAVCIS:CSI06:1,2010-03-02T19:00:00Z,28.8667,-90.4833,10.0,14.16,321.0,,'11111222,11111222,99999999' 
WAVCIS,ioos:station:WAVCIS:CSI06:1,2010-03-02T20:00:00Z,28.8667,-90.4833,10.0,14.99,324.0,,'11111222,11111222,99999999' 
WAVCIS,ioos:station:WAVCIS:CSI06:1,2010-03-02T21:00:00Z,28.8667,-90.4833,10.0,12.76,318.0,,'11111222,11111222,99999999' 
WAVCIS,ioos:station:WAVCIS:CSI06:1,2010-03-02T22:00:00Z,28.8667,-90.4833,10.0,13.18,321.0,,'11111222,11111222,99999999' 
WAVCIS,ioos:station:WAVCIS:CSI06:1,2010-03-02T23:00:00Z,28.8667,-90.4833,10.0,12.79,329.0,,'11111222,11111222,99999999' 
WAVCIS,ioos:station:WAVCIS:CSI06:1,2010-03-03T00:00:00Z,28.8667,-90.4833,10.0,11.71,336.0,,'11111222,11111222,99999999' 
WAVCIS,ioos:station:WAVCIS:CSI06:1,2010-03-03T01:00:00Z,28.8667,-90.4833,10.0,11.58,334.0,,'11111222,11111222,99999999' 
WAVCIS,ioos:station:WAVCIS:CSI06:1,2010-03-03T02:00:00Z,28.8667,-90.4833,10.0,9.99,341.0,,'11111222,11111222,99999999' 
WAVCIS,ioos:station:WAVCIS:CSI06:1,2010-03-03T03:00:00Z,28.8667,-90.4833,10.0,7.19,347.0,,'11111222,11111222,99999999' 
WAVCIS,ioos:station:WAVCIS:CSI06:1,2010-03-03T04:00:00Z,28.8667,-90.4833,10.0,7.57,350.0,,'11111222,11111222,99999999' 
WAVCIS,ioos:station:WAVCIS:CSI06:1,2010-03-03T05:00:00Z,28.8667,-90.4833,10.0,6.247,0.0,,'11111222,11111222,99999999' 
WAVCIS,ioos:station:WAVCIS:CSI06:1,2010-03-03T06:00:00Z,28.8667,-90.4833,10.0,6.308,359.0,,'11111222,11111222,99999999' 
WAVCIS,ioos:station:WAVCIS:CSI06:1,2010-03-03T07:00:00Z,28.8667,-90.4833,10.0,6.723,351.0,,'11111222,11111222,99999999' 
WAVCIS,ioos:station:WAVCIS:CSI06:1,2010-03-03T08:00:00Z,28.8667,-90.4833,10.0,5.918,343.0,,'11111222,11111222,99999999' 
WAVCIS,ioos:station:WAVCIS:CSI06:1,2010-03-03T09:00:00Z,28.8667,-90.4833,10.0,4.995,351.0,,'11111222,11111222,99999999' 
WAVCIS,ioos:station:WAVCIS:CSI06:1,2010-03-03T10:00:00Z,28.8667,-90.4833,10.0,5.129,350.0,,'11111222,11111222,99999999' 
WAVCIS,ioos:station:WAVCIS:CSI06:1,2010-03-03T11:00:00Z,28.8667,-90.4833,10.0,5.148,350.0,,'11111222,11111222,99999999' 
WAVCIS,ioos:station:WAVCIS:CSI06:1,2010-03-03T12:00:00Z,28.8667,-90.4833,10.0,5.196,348.0,,'11111222,11111222,99999999' 
WAVCIS,ioos:station:WAVCIS:CSI06:1,2010-03-03T13:00:00Z,28.8667,-90.4833,10.0,5.715,340.0,,'11111222,11111222,99999999' 
WAVCIS,ioos:station:WAVCIS:CSI06:1,2010-03-03T14:00:00Z,28.8667,-90.4833,10.0,5.235,339.0,,'11111222,11111222,99999999' 
WAVCIS,ioos:station:WAVCIS:CSI06:1,2010-03-03T15:00:00Z,28.8667,-90.4833,10.0,4.456,346.0,,'11111222,11111222,99999999' 
WAVCIS,ioos:station:WAVCIS:CSI06:1,2010-03-03T16:00:00Z,28.8667,-90.4833,10.0,5.58,335.0,,'11111222,11111222,99999999' 
WAVCIS,ioos:station:WAVCIS:CSI06:1,2010-03-03T17:00:00Z,28.8667,-90.4833,10.0,4.414,325.0,,'11111222,11111222,99999999' 
WAVCIS,ioos:station:WAVCIS:CSI06:1,2010-03-03T18:00:00Z,28.8667,-90.4833,10.0,4.626,303.0,,'11111222,11111222,99999999' 
WAVCIS,ioos:station:WAVCIS:CSI06:1,2010-03-03T19:00:00Z,28.8667,-90.4833,10.0,5.299,296.0,,'11111222,11111222,99999999' 
WAVCIS,ioos:station:WAVCIS:CSI06:1,2010-03-03T20:00:00Z,28.8667,-90.4833,10.0,5.138,279.0,,'11111222,11111222,99999999' 
WAVCIS,ioos:station:WAVCIS:CSI06:1,2010-03-03T21:00:00Z,28.8667,-90.4833,10.0,5.563,276.0,,'11111222,11111222,99999999' 
WAVCIS,ioos:station:WAVCIS:CSI06:1,2010-03-03T22:00:00Z,28.8667,-90.4833,10.0,6.662,267.0,,'11111222,11111222,99999999' 
WAVCIS,ioos:station:WAVCIS:CSI06:1,2010-03-03T23:00:00Z,28.8667,-90.4833,10.0,7.76,272.0,,'11111222,11111222,99999999' 
WAVCIS,ioos:station:WAVCIS:CSI06:1,2010-03-04T00:00:00Z,28.8667,-90.4833,10.0,9.05,283.0,,'11111222,11111222,99999999' 
WAVCIS,ioos:station:WAVCIS:CSI06:1,2010-03-04T01:00:00Z,28.8667,-90.4833,10.0,8.9,297.0,,'11111222,11111222,99999999' 
WAVCIS,ioos:station:WAVCIS:CSI06:1,2010-03-04T02:00:00Z,28.8667,-90.4833,10.0,9.66,302.0,,'11111222,11111222,99999999' 
WAVCIS,ioos:station:WAVCIS:CSI06:1,2010-03-04T03:00:00Z,28.8667,-90.4833,10.0,8.93,318.0,,'11111222,11111222,99999999' 
WAVCIS,ioos:station:WAVCIS:CSI06:1,2010-03-04T04:00:00Z,28.8667,-90.4833,10.0,7.88,337.0,,'11111222,11111222,99999999' 
WAVCIS,ioos:station:WAVCIS:CSI06:1,2010-03-04T05:00:00Z,28.8667,-90.4833,10.0,5.986,354.0,,'11111222,11111222,99999999' 
WAVCIS,ioos:station:WAVCIS:CSI06:1,2010-03-04T06:00:00Z,28.8667,-90.4833,10.0,7.21,4.0,,'11111222,11111222,99999999' 
WAVCIS,ioos:station:WAVCIS:CSI06:1,2010-03-04T07:00:00Z,28.8667,-90.4833,10.0,8.52,14.0,,'11111222,11111222,99999999' 
WAVCIS,ioos:station:WAVCIS:CSI06:1,2010-03-04T08:00:00Z,28.8667,-90.4833,10.0,7.83,18.0,,'11111222,11111222,99999999' 
WAVCIS,ioos:station:WAVCIS:CSI06:1,2010-03-04T09:00:00Z,28.8667,-90.4833,10.0,7.36,22.0,,'11111222,11111222,99999999' 
WAVCIS,ioos:station:WAVCIS:CSI06:1,2010-03-04T10:00:00Z,28.8667,-90.4833,10.0,6.776,27.0,,'11111222,11111222,99999999' 
WAVCIS,ioos:station:WAVCIS:CSI06:1,2010-03-04T11:00:00Z,28.8667,-90.4833,10.0,6.342,33.0,,'11111222,11111222,99999999' 
WAVCIS,ioos:station:WAVCIS:CSI06:1,2010-03-04T12:00:00Z,28.8667,-90.4833,10.0,5.496,38.0,,'11111222,11111222,99999999' 
WAVCIS,ioos:station:WAVCIS:CSI06:1,2010-03-04T13:00:00Z,28.8667,-90.4833,10.0,4.977,34.0,,'11111222,11111222,99999999' 
WAVCIS,ioos:station:WAVCIS:CSI06:1,2010-03-04T14:00:00Z,28.8667,-90.4833,10.0,6.186,33.0,,'11111222,11111222,99999999' 
WAVCIS,ioos:station:WAVCIS:CSI06:1,2010-03-04T15:00:00Z,28.8667,-90.4833,10.0,6.655,35.0,,'11111222,11111222,99999999' 
WAVCIS,ioos:station:WAVCIS:CSI06:1,2010-03-04T16:00:00Z,28.8667,-90.4833,10.0,5.836,27.0,,'11111222,11111222,99999999' 
WAVCIS,ioos:station:WAVCIS:CSI06:1,2010-03-04T17:00:00Z,28.8667,-90.4833,10.0,5.966,36.0,,'11111222,11111222,99999999' 
WAVCIS,ioos:station:WAVCIS:CSI06:1,2010-03-04T18:00:00Z,28.8667,-90.4833,10.0,4.897,36.0,,'11111222,11111222,99999999' 
WAVCIS,ioos:station:WAVCIS:CSI06:1,2010-03-04T19:00:00Z,28.8667,-90.4833,10.0,3.119,39.0,,'11111222,11111222,99999999' 
WAVCIS,ioos:station:WAVCIS:CSI06:1,2010-03-04T20:00:00Z,28.8667,-90.4833,10.0,2.233,59.0,,'11111222,11111222,99999999' 
WAVCIS,ioos:station:WAVCIS:CSI06:1,2010-03-04T21:00:00Z,28.8667,-90.4833,10.0,1.756,107.0,,'11111222,11111222,99999999' 
WAVCIS,ioos:station:WAVCIS:CSI06:1,2010-03-04T22:00:00Z,28.8667,-90.4833,10.0,1.801,92.0,,'11111222,11111222,99999999' 
WAVCIS,ioos:station:WAVCIS:CSI06:1,2010-03-04T23:00:00Z,28.8667,-90.4833,10.0,2.811,122.0,,'11111222,11111222,99999999' 
WAVCIS,ioos:station:WAVCIS:CSI06:1,2010-03-05T00:00:00Z,28.8667,-90.4833,10.0,2.784,143.0,,'11111222,11111222,99999999' 
WAVCIS,ioos:station:WAVCIS:CSI06:1,2010-03-05T01:00:00Z,28.8667,-90.4833,10.0,2.102,205.0,,'11111222,11111222,99999999' 
WAVCIS,ioos:station:WAVCIS:CSI06:1,2010-03-05T02:00:00Z,28.8667,-90.4833,10.0,2.294,221.0,,'11111222,11111222,99999999' 
WAVCIS,ioos:station:WAVCIS:CSI06:1,2010-03-05T03:00:00Z,28.8667,-90.4833,10.0,2.653,246.0,,'11111222,11111222,99999999' 
WAVCIS,ioos:station:WAVCIS:CSI06:1,2010-03-05T04:00:00Z,28.8667,-90.4833,10.0,2.957,240.0,,'11111222,11111222,99999999' 
WAVCIS,ioos:station:WAVCIS:CSI06:1,2010-03-05T05:00:00Z,28.8667,-90.4833,10.0,2.975,246.0,,'11111222,11111222,99999999' 
WAVCIS,ioos:station:WAVCIS:CSI06:1,2010-03-05T06:00:00Z,28.8667,-90.4833,10.0,2.448,274.0,,'11111222,11111222,99999999' 
WAVCIS,ioos:station:WAVCIS:CSI06:1,2010-03-05T07:00:00Z,28.8667,-90.4833,10.0,3.186,298.0,,'11111222,11111222,99999999' 
WAVCIS,ioos:station:WAVCIS:CSI06:1,2010-03-05T08:00:00Z,28.8667,-90.4833,10.0,4.041,312.0,,'11111222,11111222,99999999' 
WAVCIS,ioos:station:WAVCIS:CSI06:1,2010-03-05T09:00:00Z,28.8667,-90.4833,10.0,4.026,320.0,,'11111222,11111222,99999999' 
WAVCIS,ioos:station:WAVCIS:CSI06:1,2010-03-05T10:00:00Z,28.8667,-90.4833,10.0,4.373,322.0,,'11111222,11111222,99999999' 
WAVCIS,ioos:station:WAVCIS:CSI06:1,2010-03-05T11:00:00Z,28.8667,-90.4833,10.0,4.022,332.0,,'11111222,11111222,99999999' 
WAVCIS,ioos:station:WAVCIS:CSI06:1,2010-03-05T12:00:00Z,28.8667,-90.4833,10.0,3.609,352.0,,'11111222,11111222,99999999' 
WAVCIS,ioos:station:WAVCIS:CSI06:1,2010-03-05T13:00:00Z,28.8667,-90.4833,10.0,5.355,8.0,,'11111222,11111222,99999999' 
WAVCIS,ioos:station:WAVCIS:CSI06:1,2010-03-05T14:00:00Z,28.8667,-90.4833,10.0,5.921,13.0,,'11111222,11111222,99999999' 
WAVCIS,ioos:station:WAVCIS:CSI06:1,2010-03-05T15:00:00Z,28.8667,-90.4833,10.0,6.347,14.0,,'11111222,11111222,99999999' 
WAVCIS,ioos:station:WAVCIS:CSI06:1,2010-03-05T16:00:00Z,28.8667,-90.4833,10.0,5.555,19.0,,'11111222,11111222,99999999' 
WAVCIS,ioos:station:WAVCIS:CSI06:1,2010-03-05T17:00:00Z,28.8667,-90.4833,10.0,3.483,41.0,,'11111222,11111222,99999999' 
WAVCIS,ioos:station:WAVCIS:CSI06:1,2010-03-05T18:00:00Z,28.8667,-90.4833,10.0,5.184,63.0,,'11111222,11111222,99999999' 
WAVCIS,ioos:station:WAVCIS:CSI06:1,2010-03-05T19:00:00Z,28.8667,-90.4833,10.0,5.484,74.0,,'11111222,11111222,99999999' 
WAVCIS,ioos:station:WAVCIS:CSI06:1,2010-03-05T20:00:00Z,28.8667,-90.4833,10.0,4.647,82.0,,'11111222,11111222,99999999' 
WAVCIS,ioos:station:WAVCIS:CSI06:1,2010-03-05T21:00:00Z,28.8667,-90.4833,10.0,3.563,77.0,,'11111222,11111222,99999999' 
WAVCIS,ioos:station:WAVCIS:CSI06:1,2010-03-05T22:00:00Z,28.8667,-90.4833,10.0,4.082,88.0,,'11111222,11111222,99999999' 
WAVCIS,ioos:station:WAVCIS:CSI06:1,2010-03-05T23:00:00Z,28.8667,-90.4833,10.0,4.546,88.0,,'11111222,11111222,99999999' 
WAVCIS,ioos:station:WAVCIS:CSI06:1,2010-03-06T00:00:00Z,28.8667,-90.4833,10.0,3.99,92.0,,'11111222,11111222,99999999' 
WAVCIS,ioos:station:WAVCIS:CSI06:1,2010-03-06T01:00:00Z,28.8667,-90.4833,10.0,4.586,94.0,,'11111222,11111222,99999999' 
WAVCIS,ioos:station:WAVCIS:CSI06:1,2010-03-06T02:00:00Z,28.8667,-90.4833,10.0,5.32,99.0,,'11111222,11111222,99999999' 
WAVCIS,ioos:station:WAVCIS:CSI06:1,2010-03-06T03:00:00Z,28.8667,-90.4833,10.0,4.183,94.0,,'11111222,11111222,99999999' 
WAVCIS,ioos:station:WAVCIS:CSI06:1,2010-03-06T04:00:00Z,28.8667,-90.4833,10.0,4.051,90.0,,'11111222,11111222,99999999' 
WAVCIS,ioos:station:WAVCIS:CSI06:1,2010-03-06T05:00:00Z,28.8667,-90.4833,10.0,3.357,99.0,,'11111222,11111222,99999999' 
WAVCIS,ioos:station:WAVCIS:CSI06:1,2010-03-06T06:00:00Z,28.8667,-90.4833,10.0,3.354,92.0,,'11111222,11111222,99999999' 
WAVCIS,ioos:station:WAVCIS:CSI06:1,2010-03-06T07:00:00Z,28.8667,-90.4833,10.0,3.491,80.0,,'11111222,11111222,99999999' 
WAVCIS,ioos:station:WAVCIS:CSI06:1,2010-03-06T08:00:00Z,28.8667,-90.4833,10.0,2.734,59.0,,'11111222,11111222,99999999' 
WAVCIS,ioos:station:WAVCIS:CSI06:1,2010-03-06T09:00:00Z,28.8667,-90.4833,10.0,1.99,41.0,,'11111222,11111222,99999999' 
WAVCIS,ioos:station:WAVCIS:CSI06:1,2010-03-06T10:00:00Z,28.8667,-90.4833,10.0,3.711,25.0,,'11111222,11111222,99999999' 
WAVCIS,ioos:station:WAVCIS:CSI06:1,2010-03-06T11:00:00Z,28.8667,-90.4833,10.0,3.87,16.0,,'11111222,11111222,99999999' 
WAVCIS,ioos:station:WAVCIS:CSI06:1,2010-03-06T12:00:00Z,28.8667,-90.4833,10.0,5.277,29.0,,'11111222,11111222,99999999' 
WAVCIS,ioos:station:WAVCIS:CSI06:1,2010-03-06T13:00:00Z,28.8667,-90.4833,10.0,5.391,29.0,,'11111222,11111222,99999999' 
WAVCIS,ioos:station:WAVCIS:CSI06:1,2010-03-06T14:00:00Z,28.8667,-90.4833,10.0,4.846,30.0,,'11111222,11111222,99999999' 
WAVCIS,ioos:station:WAVCIS:CSI06:1,2010-03-06T15:00:00Z,28.8667,-90.4833,10.0,5.509,33.0,,'11111222,11111222,99999999' 
WAVCIS,ioos:station:WAVCIS:CSI06:1,2010-03-06T16:00:00Z,28.8667,-90.4833,10.0,5.213,46.0,,'11111222,11111222,99999999' 
WAVCIS,ioos:station:WAVCIS:CSI06:1,2010-03-06T17:00:00Z,28.8667,-90.4833,10.0,7.18,62.0,,'11111222,11111222,99999999' 
WAVCIS,ioos:station:WAVCIS:CSI06:1,2010-03-06T18:00:00Z,28.8667,-90.4833,10.0,6.235,69.0,,'11111222,11111222,99999999' 
WAVCIS,ioos:station:WAVCIS:CSI06:1,2010-03-06T19:00:00Z,28.8667,-90.4833,10.0,5.415,71.0,,'11111222,11111222,99999999' 
WAVCIS,ioos:station:WAVCIS:CSI06:1,2010-03-06T20:00:00Z,28.8667,-90.4833,10.0,5.198,71.0,,'11111222,11111222,99999999' 
WAVCIS,ioos:station:WAVCIS:CSI06:1,2010-03-06T21:00:00Z,28.8667,-90.4833,10.0,5.347,79.0,,'11111222,11111222,99999999' 
WAVCIS,ioos:station:WAVCIS:CSI06:1,2010-03-06T22:00:00Z,28.8667,-90.4833,10.0,6.067,78.0,,'11111222,11111222,99999999' 
WAVCIS,ioos:station:WAVCIS:CSI06:1,2010-03-06T23:00:00Z,28.8667,-90.4833,10.0,5.216,96.0,,'11111222,11111222,99999999' 
WAVCIS,ioos:station:WAVCIS:CSI06:1,2010-03-07T00:00:00Z,28.8667,-90.4833,10.0,6.927,101.0,,'11111222,11111222,99999999' 
WAVCIS,ioos:station:WAVCIS:CSI06:1,2010-03-07T01:00:00Z,28.8667,-90.4833,10.0,5.915,107.0,,'11111222,11111222,99999999' 
WAVCIS,ioos:station:WAVCIS:CSI06:1,2010-03-07T02:00:00Z,28.8667,-90.4833,10.0,5.162,120.0,,'11111222,11111222,99999999' 
WAVCIS,ioos:station:WAVCIS:CSI06:1,2010-03-07T03:00:00Z,28.8667,-90.4833,10.0,6.351,117.0,,'11111222,11111222,99999999' 
WAVCIS,ioos:station:WAVCIS:CSI06:1,2010-03-07T04:00:00Z,28.8667,-90.4833,10.0,6.468,114.0,,'11111222,11111222,99999999' 
WAVCIS,ioos:station:WAVCIS:CSI06:1,2010-03-07T05:00:00Z,28.8667,-90.4833,10.0,4.856,105.0,,'11111222,11111222,99999999' 
WAVCIS,ioos:station:WAVCIS:CSI06:1,2010-03-07T06:00:00Z,28.8667,-90.4833,10.0,3.652,102.0,,'11111222,11111222,99999999' 
WAVCIS,ioos:station:WAVCIS:CSI06:1,2010-03-07T07:00:00Z,28.8667,-90.4833,10.0,3.375,85.0,,'11111222,11111222,99999999' 
WAVCIS,ioos:station:WAVCIS:CSI06:1,2010-03-07T08:00:00Z,28.8667,-90.4833,10.0,3.972,85.0,,'11111222,11111222,99999999' 
WAVCIS,ioos:station:WAVCIS:CSI06:1,2010-03-07T09:00:00Z,28.8667,-90.4833,10.0,3.024,87.0,,'11111222,11111222,99999999' 
WAVCIS,ioos:station:WAVCIS:CSI06:1,2010-03-07T10:00:00Z,28.8667,-90.4833,10.0,4.394,96.0,,'11111222,11111222,99999999' 
WAVCIS,ioos:station:WAVCIS:CSI06:1,2010-03-07T11:00:00Z,28.8667,-90.4833,10.0,5.377,81.0,,'11111222,11111222,99999999' 
WAVCIS,ioos:station:WAVCIS:CSI06:1,2010-03-07T12:00:00Z,28.8667,-90.4833,10.0,4.896,80.0,,'11111222,11111222,99999999' 
WAVCIS,ioos:station:WAVCIS:CSI06:1,2010-03-07T13:00:00Z,28.8667,-90.4833,10.0,4.516,72.0,,'11111222,11111222,99999999' 
WAVCIS,ioos:station:WAVCIS:CSI06:1,2010-03-07T14:00:00Z,28.8667,-90.4833,10.0,5.394,71.0,,'11111222,11111222,99999999' 
WAVCIS,ioos:station:WAVCIS:CSI06:1,2010-03-07T15:00:00Z,28.8667,-90.4833,10.0,5.696,74.0,,'11111222,11111222,99999999' 
WAVCIS,ioos:station:WAVCIS:CSI06:1,2010-03-07T16:00:00Z,28.8667,-90.4833,10.0,7.02,61.0,,'11111222,11111222,99999999' 
WAVCIS,ioos:station:WAVCIS:CSI06:1,2010-03-07T17:00:00Z,28.8667,-90.4833,10.0,7.44,72.0,,'11111222,11111222,99999999' 
WAVCIS,ioos:station:WAVCIS:CSI06:1,2010-03-07T18:00:00Z,28.8667,-90.4833,10.0,7.9,78.0,,'11111222,11111222,99999999' 
WAVCIS,ioos:station:WAVCIS:CSI06:1,2010-03-07T19:00:00Z,28.8667,-90.4833,10.0,7.7,76.0,,'11111222,11111222,99999999' 
WAVCIS,ioos:station:WAVCIS:CSI06:1,2010-03-07T20:00:00Z,28.8667,-90.4833,10.0,7.66,73.0,,'11111222,11111222,99999999' 
WAVCIS,ioos:station:WAVCIS:CSI06:1,2010-03-07T21:00:00Z,28.8667,-90.4833,10.0,8.16,80.0,,'11111222,11111222,99999999' 
WAVCIS,ioos:station:WAVCIS:CSI06:1,2010-03-07T22:00:00Z,28.8667,-90.4833,10.0,6.555,75.0,,'11111222,11111222,99999999' 
WAVCIS,ioos:station:WAVCIS:CSI06:1,2010-03-07T23:00:00Z,28.8667,-90.4833,10.0,6.734,83.0,,'11111222,11111222,99999999' 
WAVCIS,ioos:station:WAVCIS:CSI06:1,2010-03-08T00:00:00Z,28.8667,-90.4833,10.0,7.04,92.0,,'11111222,11111222,99999999' 
WAVCIS,ioos:station:WAVCIS:CSI06:1,2010-03-08T01:00:00Z,28.8667,-90.4833,10.0,6.428,90.0,,'11111222,11111222,99999999' 
WAVCIS,ioos:station:WAVCIS:CSI06:1,2010-03-08T02:00:00Z,28.8667,-90.4833,10.0,5.424,93.0,,'11111222,11111222,99999999' 
WAVCIS,ioos:station:WAVCIS:CSI06:1,2010-03-08T03:00:00Z,28.8667,-90.4833,10.0,5.677,82.0,,'11111222,11111222,99999999' 
WAVCIS,ioos:station:WAVCIS:CSI06:1,2010-03-08T04:00:00Z,28.8667,-90.4833,10.0,5.08,67.0,,'11111222,11111222,99999999' 
WAVCIS,ioos:station:WAVCIS:CSI06:1,2010-03-08T05:00:00Z,28.8667,-90.4833,10.0,6.067,77.0,,'11111222,11111222,99999999' 
WAVCIS,ioos:station:WAVCIS:CSI06:1,2010-03-08T06:00:00Z,28.8667,-90.4833,10.0,3.67,81.0,,'11111222,11111222,99999999' 
WAVCIS,ioos:station:WAVCIS:CSI06:1,2010-03-08T07:00:00Z,28.8667,-90.4833,10.0,5.246,81.0,,'11111222,11111222,99999999' 
WAVCIS,ioos:station:WAVCIS:CSI06:1,2010-03-08T08:00:00Z,28.8667,-90.4833,10.0,4.291,71.0,,'11111222,11111222,99999999' 
WAVCIS,ioos:station:WAVCIS:CSI06:1,2010-03-08T09:00:00Z,28.8667,-90.4833,10.0,5.432,74.0,,'11111222,11111222,99999999' 
WAVCIS,ioos:station:WAVCIS:CSI06:1,2010-03-08T10:00:00Z,28.8667,-90.4833,10.0,6.653,71.0,,'11111222,11111222,99999999' 
WAVCIS,ioos:station:WAVCIS:CSI06:1,2010-03-08T11:00:00Z,28.8667,-90.4833,10.0,6.378,79.0,,'11111222,11111222,99999999' 
WAVCIS,ioos:station:WAVCIS:CSI06:1,2010-03-08T12:00:00Z,28.8667,-90.4833,10.0,7.13,81.0,,'11111222,11111222,99999999' 
WAVCIS,ioos:station:WAVCIS:CSI06:1,2010-03-08T13:00:00Z,28.8667,-90.4833,10.0,7.52,86.0,,'11111222,11111222,99999999' 
WAVCIS,ioos:station:WAVCIS:CSI06:1,2010-03-08T14:00:00Z,28.8667,-90.4833,10.0,8.13,93.0,,'11111222,11111222,99999999' 
WAVCIS,ioos:station:WAVCIS:CSI06:1,2010-03-08T15:00:00Z,28.8667,-90.4833,10.0,8.77,88.0,,'11111222,11111222,99999999' 
WAVCIS,ioos:station:WAVCIS:CSI06:1,2010-03-08T16:00:00Z,28.8667,-90.4833,10.0,8.04,107.0,,'11111222,11111222,99999999' 
WAVCIS,ioos:station:WAVCIS:CSI06:1,2010-03-08T17:00:00Z,28.8667,-90.4833,10.0,7.92,103.0,,'11111222,11111222,99999999' 
WAVCIS,ioos:station:WAVCIS:CSI06:1,2010-03-08T18:00:00Z,28.8667,-90.4833,10.0,6.69,98.0,,'11111222,11111222,99999999' 
WAVCIS,ioos:station:WAVCIS:CSI06:1,2010-03-08T19:00:00Z,28.8667,-90.4833,10.0,4.697,93.0,,'11111222,11111222,99999999' 
WAVCIS,ioos:station:WAVCIS:CSI06:1,2010-03-08T20:00:00Z,28.8667,-90.4833,10.0,4.343,80.0,,'11111222,11111222,99999999' 
WAVCIS,ioos:station:WAVCIS:CSI06:1,2010-03-08T21:00:00Z,28.8667,-90.4833,10.0,7.01,71.0,,'11111222,11111222,99999999' 
WAVCIS,ioos:station:WAVCIS:CSI06:1,2010-03-08T22:00:00Z,28.8667,-90.4833,10.0,7.1,74.0,,'11111222,11111222,99999999' 
WAVCIS,ioos:station:WAVCIS:CSI06:1,2010-03-08T23:00:00Z,28.8667,-90.4833,10.0,8.29,93.0,,'11111222,11111222,99999999' 
WAVCIS,ioos:station:WAVCIS:CSI06:1,2010-03-09T00:00:00Z,28.8667,-90.4833,10.0,8.12,113.0,,'11111222,11111222,99999999' 
WAVCIS,ioos:station:WAVCIS:CSI06:1,2010-03-09T01:00:00Z,28.8667,-90.4833,10.0,10.31,112.0,,'11111222,11111222,99999999' 
WAVCIS,ioos:station:WAVCIS:CSI06:1,2010-03-09T02:00:00Z,28.8667,-90.4833,10.0,12.98,133.0,,'11111222,11111222,99999999' 
WAVCIS,ioos:station:WAVCIS:CSI06:1,2010-03-09T03:00:00Z,28.8667,-90.4833,10.0,13.1,143.0,,'11111222,11111222,99999999' 
WAVCIS,ioos:station:WAVCIS:CSI06:1,2010-03-09T04:00:00Z,28.8667,-90.4833,10.0,14.31,136.0,,'11111222,11111222,99999999' 
WAVCIS,ioos:station:WAVCIS:CSI06:1,2010-03-09T05:00:00Z,28.8667,-90.4833,10.0,14.64,148.0,,'11111222,11111222,99999999' 